Location: Newark
(49.4900°N, 20.6656°E)
Time: 17:18:57
(UTC+00:00)

STARLINK-1726 - Pass Details

Date: 24 September 2020
Orbit: 378 x 381 km, 53.0° (Epoch: 30 October)

Event Time Altitude Azimuth Distance (km) Brightness Sun altitude
Exits shadow 01:37:18 23° 55° (NE) 915 5.4 -26.8°
Drops below altitude 10° 01:38:50 10° 68° (ENE) 1,481 6.8 -26.6°
Enters shadow 02:34:50 -69° 271° (W) 12,296 10.4 -18.6°
Maximum altitude 03:12:06 53° 12° (NNE) 514 3.6 -12.9°
